User: anonymous   Login
Location: Brahman Valley
(40.6513°N, 111.8855°W)
Time: 02:57:16
(UTC+00:00)
Language:

Tiros 1 despin weight - Orbit

View from above orbital plane
View from above orbital plane
View from above satellite
View from above satellite

Ground track
Ground track

The orbit data is extracted from the following two-line orbital elements,

1   115U 60002D   21131.42962927 -.00000032  00000-0  23212-4 0  9994
2   115  48.1653 136.9357 0035257 255.1575 104.5431 14.83760630261670
Epoch (UTC): 11 May 2021 10:18:39
Eccentricity: 0.0035257
inclination: 48.1653°
perigee height: 593 km
apogee height: 642 km
right ascension of ascending node: 136.9357°
argument of perigee: 255.1575°
revolutions per day: 14.83760630
mean anomaly at epoch: 104.5431°
orbit number at epoch: 26167

The dashed part of the orbit path shows where the satellite is in the earth's shadow,  

DLR